Weather History for KSIY - October, 2013

Change the Weather History Date:

Sunday, October 27, 2013

  Actual Average Record
Temperature  
Mean Temperature 48 °F 47 °F  
Max Temperature 68 °F 61 °F 80 °F (1990)
Min Temperature 28 °F 34 °F 21 °F (2011)
Degree Days  
Heating Degree Days 17 18  
Month to date heating degree days 415 337  
Since 1 July heating degree days 562 479  
Cooling Degree Days 0 0  
Month to date cooling degree days 0 0  
Year to date cooling degree days 776 542  
Moisture  
Dew Point 29 °F    
Average Humidity 57    
Maximum Humidity 75    
Minimum Humidity 19    
Precipitation  
Precipitation T in 0.07 in 1.69 in (1950)
Month to date precipitation T 0.92  
Year to date precipitation 5.07 12.56  
Sea Level Pressure  
Sea Level Pressure 29.92 in    
Wind  
Wind Speed 10 mph (North)    
Max Wind Speed 44 mph    
Max Gust Speed 52 mph    
Visibility 10 miles    
Events Rain    
T = Trace of Precipitation, MM = Missing Value Source: NWS Daily Summary

Daily Weather History Graph

Daily Weather History Graph

Search for Another Location

Airport or City:

Trip Planner

Search our weather history database for the weather conditions in past years. The results will help you decide how hot, cold, wet, or windy it might be!

Date:

Astronomy

Oct. 27, 2013 Rise Set
Actual Time 7:36 AM PDT 6:10 PM PDT
Civil Twilight 7:07 AM PDT 6:38 PM PDT
Nautical Twilight 6:35 AM PDT 7:11 PM PDT
Astronomical Twilight 6:02 AM PDT 7:43 PM PDT
Moon 12:33 AM PDT (10/27) 2:27 PM PDT (10/27)
Length of Visible Light 11h 31m
Length of Day
10h 33m
Last Quarter, 42% of the Moon is Illuminated
Oct 27
Last Quarter
Nov 3
New
Nov 9
First Quarter
Nov 17
Full
Nov 25
Last Quarter

Hourly Weather History & Observations

Time (PDT) Temp. Windchill Dew Point Humidity Pressure Visibility Wind Dir Wind Speed Gust Speed Precip Events Conditions
12:53 AM 36.0 °F 30.3 °F 24.1 °F 62% 30.14 in 10.0 mi North 6.9 mph - N/A   Clear
1:53 AM 37.9 °F 35.5 °F 23.0 °F 55% 30.11 in 10.0 mi North 3.5 mph - N/A   Clear
2:53 AM 33.1 °F - 21.9 °F 64% 30.09 in 10.0 mi Calm Calm - N/A   Clear
3:53 AM 30.0 °F 24.1 °F 21.0 °F 69% 30.06 in 10.0 mi North 5.8 mph - N/A   Clear
4:53 AM 34.0 °F 28.0 °F 24.1 °F 67% 30.03 in 10.0 mi NE 6.9 mph - N/A   Scattered Clouds
5:53 AM 32.0 °F - 25.0 °F 75% 30.06 in 10.0 mi Calm Calm - N/A   Scattered Clouds
6:53 AM 30.9 °F - 23.0 °F 72% 30.07 in 10.0 mi Calm Calm - N/A   Clear
7:53 AM 28.0 °F - 21.0 °F 75% 30.08 in 10.0 mi Calm Calm - N/A   Clear
8:53 AM 34.0 °F - 25.0 °F 70% 30.08 in 10.0 mi Calm Calm - N/A   Clear
9:53 AM 43.0 °F 39.5 °F 28.9 °F 58% 30.05 in 10.0 mi SSW 5.8 mph - N/A   Clear
10:53 AM 48.9 °F - 30.0 °F 48% 30.01 in 10.0 mi Calm Calm - N/A   Clear
11:53 AM 57.0 °F - 30.9 °F 37% 29.92 in 10.0 mi South 8.1 mph - N/A   Clear
12:53 PM 60.1 °F - 34.0 °F 38% 29.86 in 10.0 mi SW 4.6 mph - N/A   Clear
1:53 PM 68.0 °F - 24.1 °F 19% 29.77 in 10.0 mi NW 20.7 mph 28.8 mph N/A   Clear
2:05 PM 66.2 °F - 24.8 °F 21% 29.75 in 7.0 mi NNW 24.2 mph 29.9 mph N/A   Clear
2:53 PM 57.0 °F - 35.1 °F 44% 29.82 in 8.0 mi North 39.1 mph 50.6 mph N/A   Clear
3:53 PM 55.9 °F - 32.0 °F 40% 29.83 in 10.0 mi North 29.9 mph 40.3 mph N/A   Clear
4:53 PM 55.0 °F - 33.1 °F 43% 29.79 in 10.0 mi North 15.0 mph - N/A   Mostly Cloudy
5:53 PM 50.0 °F - 30.0 °F 46% 29.82 in 10.0 mi NNW 17.3 mph - N/A   Overcast
6:53 PM 46.0 °F 40.6 °F 34.0 °F 63% 29.83 in 10.0 mi North 11.5 mph - 0.00 in   Mostly Cloudy
7:53 PM 44.1 °F 38.1 °F 35.1 °F 71% 29.83 in 10.0 mi NNE 11.5 mph - 0.00 in Rain Light Rain
8:53 PM 44.1 °F 39.0 °F 35.1 °F 71% 29.80 in 10.0 mi NNE 9.2 mph - 0.00 in   Mostly Cloudy
9:53 PM 45.0 °F 38.5 °F 35.1 °F 68% 29.78 in 10.0 mi North 13.8 mph - 0.00 in   Mostly Cloudy
10:53 PM 44.1 °F 37.1 °F 35.1 °F 71% 29.75 in 10.0 mi North 15.0 mph - N/A   Mostly Cloudy
11:53 PM 44.1 °F 38.6 °F 34.0 °F 68% 29.75 in 10.0 mi North 10.4 mph 16.1 mph N/A   Overcast